Regional Weather Roundup
Issued by NWS

Home | Current Version | Previous Version | Text Only | Print | Product List | Glossary On
Versions: 1 2 3 4 5 6 7 8 9 10 11 12 13 14 15 16 17 18 19 20 21 22 23 24 25 26 27 28 29 30 31 32 33 34 35 36 37 38 39 40 41 42 43 44 45 46 47 48 49 50
000
ASUS46 KLOX 211702
RWRCA

SOUTHERN CALIFORNIA WEATHER ROUNDUP
NATIONAL WEATHER SERVICE OXNARD CALIFORNIA
1000 AM PDT SUN SEP 21 2014

NOTE: "FAIR" INDICATES FEW OR NO CLOUDS BELOW 12,000 FEET WITH NO
SIGNIFICANT WEATHER AND/OR OBSTRUCTIONS TO VISIBILITY.

  -  STATIONS PRECEEDED BY AN ASTERISK (*) ARE NOT NWS OR FAA
     STATIONS AND ARE NOT SUBJECT TO NWS AND FAA QUALITY CONTROL.

CAZ041-042-087-211800-
LA AND ORANGE COUNTY COASTAL AREAS


CITY           SKY/WX    TMP DP  RH WIND       PRES   REMARKS
L.A. DOWNTOWN  CLOUDY    70  60  70 CALM      30.00R
L.A. AIRPORT   CLOUDY    70  60  70 CALM      30.01R
LONG BEACH     PTSUNNY   73  61  65 CALM      30.00R

CITY           SKY/WX    TMP DP  RH WIND       PRES   REMARKS
AVALON           N/A     73 N/A N/A NE2         N/A
FULLERTON      CLOUDY    71  60  68 CALM      29.99S
*GETTY CENTER    N/A     66  57  72 S3          N/A
HAWTHORNE      PTSUNNY   72  60  66 CALM      30.00R
*LEO CARRILLO    N/A     75  66  73 SW5         N/A
*LOS ALAMITOS  PTSUNNY   71  61  70 VRB3      30.00S
*REDONDO BEACH   N/A     71  62  71 CALM      29.99S
SANTA ANA      PTSUNNY   73  58  59 CALM      30.00R
STA MONICA APT CLOUDY    71  59  65 VRB6      30.01R
TORRANCE       PTSUNNY   75  63  64 W8        30.01R
*UCLA            N/A     70  57  64 N1        29.98S

$$

CAZ547-548-048-211800-
LA COUNTY VALLEYS AND INLAND EMPIRE


CITY           SKY/WX    TMP DP  RH WIND       PRES   REMARKS
BURBANK        CLOUDY    68  57  68 CALM      30.01R
VAN NUYS       CLOUDY    69  58  67 VRB3      30.01S

CITY           SKY/WX    TMP DP  RH WIND       PRES   REMARKS
CORONA AIRPORT CLOUDY    68  60  75 CALM      30.02R
*CHATSWORTH      N/A     69  61  74 SW2       29.98S
CHINO          CLOUDY    68  60  75 CALM      30.02R HAZE
MARCH AFB      CLOUDY    65  60  82 S3        30.03R
*NORTHRIDGE      N/A     70  57  64 S2          N/A
ONTARIO        CLOUDY    68  59  73 CALM      30.01R
*PASADENA        N/A     68  61  77 E1          N/A
POMONA         CLOUDY    64  59  82 CALM      30.04S
RIVERSIDE      CLOUDY    68  60  75 CALM      30.02R
SAN BERNARDINO CLOUDY    66  59  77 W5        30.02R FOG
*SAN GABRIEL     N/A     69  60  73 CALM      29.97S
*SAN RAFAEL HI   N/A     68  67  98 N2G90       N/A
*SAUGUS          N/A     73  59  61 SW3         N/A
*WHITEMAN AP   NOT AVBL
*WHITTIER HILL   N/A     66  64  94 CALM        N/A
*WOODLAND HILL   N/A     70  57  64 NE2         N/A

$$

CAZ054-055-211800-
LA AND SAN BERNARDINO COUNTY MOUNTAINS


CITY           SKY/WX    TMP DP  RH WIND       PRES   REMARKS
*BIG BEAR AIRP SUNNY     63  30  29 CALM      30.24R
*CHILAO          N/A     71  35  27 S6          N/A
MT WILSON NWS    N/A     72  43  35 MISG        N/A
SANDBERG       SUNNY     73  49  42 CALM      30.13R
*WARM SPRINGS    N/A     70  52  53 CALM        N/A

$$

CAZ028-029-059-060-099-211800-
ANTELOPE VALLEY AND SURROUNDING AREAS


CITY           SKY/WX    TMP DP  RH WIND       PRES   REMARKS
LANCASTER      SUNNY     76  42  29 SE5       30.02S
PALMDALE       SUNNY     76  43  30 VRB3      30.03R
*POPPY PARK      N/A     83  48  29 SW2G16      N/A

CITY           SKY/WX    TMP DP  RH WIND       PRES   REMARKS
29 PALMS       SUNNY     80  48  32 N5        30.05R
BARSTOW/DAGGET SUNNY     79  47  32 W9        29.99S
BISHOP         MOSUNNY   71  47  42 NW5       30.11S
CHINA LAKE     SUNNY     81  51  35 E3        30.00S
EDWARDS AFB    SUNNY     74  50  42 VRB5      30.01R
MOJAVE         FAIR      73  48  40 E6        30.04R
NEEDLES        SUNNY     91  57  31 NW6       29.92R
VICTORVILLE    SUNNY     73  48  40 CALM      30.04S

$$

CAZ039-040-211800-
VENTURA AND SANTA BARBARA COUNTY COAST


CITY           SKY/WX    TMP DP  RH WIND       PRES   REMARKS
CAMARILLO      CLOUDY    71  60  68 CALM      30.01R
NWS OXNARD       N/A     67  61  80 CALM      30.00S
OXNARD AIRPORT CLOUDY    67  60  78 CALM      30.01R
*POINT MUGU    CLOUDY    72  62  71 VRB3      30.01S
SBA APT/GOLETA CLOUDY    68  61  78 SE3       30.01R
*SANTA BARBARA   N/A     68  61  78 NW2       30.08
*VENTURA         N/A     67  62  84 CALM      30.05S

$$

CAZ044-045-211800-
VENTURA COUNTY VALLEYS


CITY           SKY/WX    TMP DP  RH WIND       PRES   REMARKS
*SIMI VALLEY     N/A     67  61  81 CALM      29.98S
*OJAI            N/A     71  62  75 NW3       29.95F
*FILLMORE        N/A     69  63  80 CALM      29.91F

$$

CAZ053-211800-
VENTURA COUNTY MOUNTAINS


CITY           SKY/WX    TMP DP  RH WIND       PRES   REMARKS
*LOCKWOOD VLY    N/A     70  41  35 MISG        N/A
*ROSE VALLEY     N/A     75  50  41 MISG        N/A

$$

CAZ034-035-036-211800-
CENTRAL COAST AND SANTA YNEZ VALLEY


CITY           SKY/WX    TMP DP  RH WIND       PRES   REMARKS
SAN LUIS OBISP CLOUDY    63  58  83 CALM      30.03R
SANTA MARIA    CLOUDY    66  57  72 N3        30.03R

CITY           SKY/WX    TMP DP  RH WIND       PRES   REMARKS
*CAL POLY SLO    N/A     63  59  88 S2          N/A
*LOMPOC        CLOUDY    66  55  68 CALM      30.04R
*PISMO BEACH     N/A     65  59  82 CALM      30.03S
*SANTA YNEZ    CLOUDY    63  55  77 CALM      30.03S

$$

CAZ037-038-051-211800-
SAN LUIS OBISPO COUNTY INTERIOR AND CUYAMA VALLEY


CITY           SKY/WX    TMP DP  RH WIND       PRES   REMARKS
*CUYAMA          N/A     66  54  64 SW3       29.95R
PASO ROBLES    CLOUDY    62  56  80 VRB6      30.04R

$$

CAZ032-033-061-211800-
SOUTHERN DESERTS


CITY           SKY/WX    TMP DP  RH WIND       PRES   REMARKS
BLYTHE         SUNNY     88  58  36 S8        29.90R
IMPERIAL       SUNNY     88  45  22 W6        29.87R
PALM SPRINGS   SUNNY     85  53  33 CALM      29.91R
THERMAL        SUNNY     86  57  37 VRB3      29.86R

$$

ELSEWHERE ACROSS THE WESTERN UNITED STATES AND MEXICO


CITY           SKY/WX    TMP DP  RH WIND       PRES   REMARKS
DENVER, CO     PTSUNNY   65  45  48 VRB3      30.39S
GRAND CANYON,  MOSUNNY   69  56  62 SW12      30.31R
HONOLULU, HI   PTCLDY    78  71  79 CALM      29.96R
KAHULUI, MAUI  PTCLDY    75  69  81 SE5       29.97R
LAKE TAHOE, CA CLOUDY    58  42  55 CALM      30.20R
LAS VEGAS, NV  MOSUNNY   81  57  43 CALM      29.99R
MAMMOTH LAKES, PTSUNNY   52  46  82 N9        30.29R
MEXICO CITY, M CLOUDY    66  52  59 SW6       30.35F
PHOENIX, AZ    MOSUNNY   90  54  29 E3        29.95R
PORTLAND, OR   MOSUNNY   71  57  61 S6        29.90R
RENO, NV       CLOUDY    66  49  54 NE5       30.13R
SALT LAKE CITY CLOUDY    69  51  52 S13       30.16R
SAN DIEGO, CA  MOSUNNY   74  58  57 W5        30.00R
SAN FRANCISCO, CLOUDY    67  60  78 W8        30.01R
SAN JOSE, CA   CLOUDY    65  57  75 CALM      30.02R
SEATTLE, WA    MOSUNNY   65  56  72 S5        29.90R
TIJUANA, MEX   MOSUNNY   72  55  56 N6        30.01R

$$

STATION/POSITION TIME  TEMP    WIND        PRES    VSBY  WAVE
                       AIR SEA DIR/SP/G                  HT/PER
                 (UTC) (F)     (DEG/KT/KT) (MB)    (MI)  (FT/S)
POINT ARGUELLO B NOT AVBL
WEST SANTA BARBA 1600   64 65  350/  8/ 10 1015.3R         4/14
POINT CONCEPTION NOT AVBL
EAST SANTA BARBA 1600   65 65  200/  2/  4 1015.8R
SANTA MONICA BAY 1600   67 72  350/  6/  8 1015.3R         3/13


USA.gov is the U.S. government's official web portal to all federal, state and local government web resources and services.